Starlink 4626

operational
NORAD ID: 53685 Int'l Des: 2022-105 Owner: SPXS Country: US Constellation: starlink
LEOCIRCULARRETROGRADESSO

About Starlink 4626

Description loading...

Live Position

Loading 3D Globe...

Upcoming Passes

Altitude History

Altitude vs Time

uPlot chart will show altitude changes over time

Two-Line Element Set

1 53685U 22105AP 26015.66954372 -.00000808 00000-0 -58331-4 0 9995
2 53685 97.6023 258.3176 0003947 52.4808 307.6775 15.01260032185287
Epoch: Jan 15, 2026 • Age: 12 hours

Current Status

Altitude 572.2 km
Velocity 7.57 km/s
Sub-Earth Point -17.38°S, 101.33°W
Launch Date Aug 31, 2022
Age 3.3 years
Type internet

Technical Details

Classification Payload
Mass 300.00 kg
Dry Mass 290.00 kg
Total Mass 300.00 kg
Length 0.20 m
Diameter 2.80 m
Span 9.00 m
Shape Box + pan
Manufacturer SPXS
Bus Type Starlink
Phase Status In Orbit
Owner/State SPXS/US

Large Constellations

Loading constellations...